Shaw AFB, SC

11:40 AM EDT on March 27, 2017 (GMT -0400)
Shaw Air Force Base

Weather History for KSSC - December, 2014

Change the Weather History Date:

Monday, December 22, 2014

  Actual Average Record
Temperature  
Mean Temperature 42 °F -  
Max Temperature 44 °F 53 °F 79 °F (2013)
Min Temperature 41 °F 32 °F 23 °F (2008)
Degree Days  
Heating Degree Days 22    
Moisture  
Dew Point 41 °F    
Average Humidity 94    
Maximum Humidity 100    
Minimum Humidity 93    
Precipitation  
Precipitation 0.26 in - - ()
Sea Level Pressure  
Sea Level Pressure 30.05 in    
Wind  
Wind Speed 10 mph (NE)    
Max Wind Speed 14 mph    
Max Gust Speed -    
Visibility 6 miles    
Events Rain    
Averages and records for this station are not official NWS values.
T = Trace of Precipitation, MM = Missing Value Source: NWS Daily Summary

Daily Weather History Graph

Daily Weather History Graph

Search for Another Location

Airport or City:

Trip Planner

Search our weather history database for the weather conditions in past years. The results will help you decide how hot, cold, wet, or windy it might be!

Date:

Astronomy

Dec. 22, 2014 Rise Set
Actual Time 7:23 AM EST 5:17 PM EST
Civil Twilight 6:56 AM EST 5:45 PM EST
Nautical Twilight 6:24 AM EST 6:16 PM EST
Astronomical Twilight 5:54 AM EST 6:46 PM EST
Moon 7:38 AM EST (12/22) 6:20 PM EST (12/22)
Length of Visible Light 10h 49m
Length of Day
9h 53m
New Moon, 1% of the Moon is Illuminated
Dec 22
New Moon
Dec 28
First Quarter
Jan 4
Full
Jan 13
Last Quarter
Jan 20
New

Hourly Weather History & Observations

Time (EST) Temp. Windchill Dew Point Humidity Pressure Visibility Wind Dir Wind Speed Gust Speed Precip Events Conditions
12:18 AM 44.6 °F 38.4 °F 42.8 °F 93% 30.11 in 6.0 mi NE 12.7 mph - N/A Rain Light Rain
12:23 AM 44.6 °F 38.8 °F 42.8 °F 93% 30.11 in 5.0 mi NE 11.5 mph - N/A Rain Light Rain
12:24 AM 44.6 °F 38.8 °F 42.8 °F 93% 30.11 in 5.0 mi NE 11.5 mph - N/A Rain Rain
12:29 AM 44.6 °F 38.4 °F 42.8 °F 93% 30.10 in 5.0 mi NE 12.7 mph - N/A Rain Light Rain
12:34 AM 44.6 °F 39.2 °F 42.8 °F 93% 30.10 in 6.0 mi NE 10.4 mph - N/A Rain Light Rain
12:35 AM 44.6 °F 39.2 °F 42.8 °F 93% 30.10 in 6.0 mi NE 10.4 mph - N/A Rain Light Rain
12:40 AM 44.6 °F 38.8 °F 42.8 °F 93% 30.10 in 7.0 mi NE 11.5 mph - N/A Rain Light Rain
12:50 AM 44.6 °F 38.8 °F 42.8 °F 93% 30.10 in 7.0 mi NE 11.5 mph - N/A   Light Drizzle
12:55 AM 44.6 °F 39.2 °F 42.8 °F 93% 30.10 in 7.0 mi NE 10.4 mph - N/A Rain Light Rain
12:58 AM 44.2 °F 38.0 °F 42.6 °F 94% 30.11 in 6.0 mi NE 12.7 mph - 0.02 in Rain Light Rain
1:08 AM 42.8 °F 36.6 °F 41.0 °F 93% 30.10 in 5.0 mi NNE 11.5 mph - N/A Rain Light Rain
1:13 AM 42.8 °F 35.8 °F 41.0 °F 93% 30.09 in 5.0 mi NE 13.8 mph - N/A Rain Light Rain
1:18 AM 42.8 °F 35.8 °F 41.0 °F 93% 30.09 in 6.0 mi NE 13.8 mph - N/A Rain Light Rain
1:33 AM 42.8 °F 36.6 °F 41.0 °F 93% 30.08 in 6.0 mi NE 11.5 mph - N/A Rain Light Rain
1:35 AM 42.8 °F 37.5 °F 41.0 °F 93% 30.08 in 6.0 mi NE 9.2 mph - N/A Rain Light Rain
1:50 AM 42.8 °F 36.2 °F 41.0 °F 93% 30.09 in 5.0 mi NNE 12.7 mph - N/A Rain Light Rain
1:58 AM 43.0 °F 38.2 °F 41.4 °F 94% 30.11 in 4.0 mi North 8.1 mph - 0.04 in Rain Light Rain
2:03 AM 42.8 °F 38.0 °F 41.0 °F 93% 30.11 in 6.0 mi NNW 8.1 mph - N/A Rain Light Rain
2:08 AM 42.8 °F 37.5 °F 41.0 °F 93% 30.10 in 8.0 mi NNE 9.2 mph - N/A Rain Light Rain
2:18 AM 42.8 °F 37.5 °F 41.0 °F 93% 30.10 in 6.0 mi NNE 9.2 mph - N/A Rain Light Rain
2:23 AM 42.8 °F 37.5 °F 41.0 °F 93% 30.09 in 5.0 mi NE 9.2 mph - N/A Rain Light Rain
2:28 AM 42.8 °F 37.0 °F 41.0 °F 93% 30.09 in 4.0 mi NE 10.4 mph - N/A Rain Rain
2:38 AM 42.8 °F 39.3 °F 41.0 °F 93% 30.10 in 5.0 mi NE 5.8 mph - N/A Rain Light Rain
2:53 AM 42.8 °F 39.3 °F 41.0 °F 93% 30.10 in 7.0 mi NNE 5.8 mph - N/A   Light Drizzle
2:58 AM 42.8 °F 38.0 °F 41.5 °F 95% 30.11 in 8.0 mi NNE 8.1 mph - 0.04 in   Light Drizzle
3:08 AM 42.8 °F 38.6 °F 41.0 °F 93% 30.09 in 9.0 mi NNE 6.9 mph - N/A   Light Drizzle
3:09 AM 42.8 °F 38.6 °F 41.0 °F 93% 30.09 in 9.0 mi NNE 6.9 mph - N/A   Overcast
3:19 AM 42.8 °F 38.6 °F 41.0 °F 93% 30.09 in 9.0 mi NE 6.9 mph - N/A   Overcast
3:29 AM 42.8 °F 38.0 °F 41.0 °F 93% 30.08 in 9.0 mi NNE 8.1 mph - N/A   Overcast
3:34 AM 42.8 °F 37.5 °F 41.0 °F 93% 30.08 in 10.0 mi NNE 9.2 mph - N/A   Overcast
3:39 AM 42.8 °F 37.5 °F 41.0 °F 93% 30.08 in 10.0 mi NNE 9.2 mph - N/A   Overcast
3:54 AM 42.8 °F 38.0 °F 41.0 °F 93% 30.08 in 10.0 mi NNE 8.1 mph - N/A   Overcast
3:58 AM 43.0 °F 37.7 °F 41.4 °F 94% 30.08 in 10.0 mi NNE 9.2 mph - 0.00 in   Overcast
4:33 AM 42.8 °F 37.0 °F 41.0 °F 93% 30.06 in 10.0 mi NNE 10.4 mph - N/A   Overcast
4:58 AM 43.0 °F 36.4 °F 41.4 °F 94% 30.06 in 10.0 mi NNE 12.7 mph - N/A   Overcast
5:22 AM 42.8 °F 36.2 °F 41.0 °F 93% 30.06 in 10.0 mi NNE 12.7 mph - N/A   Light Drizzle
5:27 AM 42.8 °F 36.2 °F 41.0 °F 93% 30.06 in 6.0 mi NNE 12.7 mph - N/A Rain Rain
5:32 AM 42.8 °F 37.0 °F 41.0 °F 93% 30.07 in 5.0 mi NE 10.4 mph - N/A Rain Light Rain
5:37 AM 42.8 °F 37.0 °F 41.0 °F 93% 30.07 in 8.0 mi NNE 10.4 mph - N/A Rain Light Rain
5:42 AM 42.8 °F 38.0 °F 41.0 °F 93% 30.07 in 9.0 mi NNE 8.1 mph - N/A Rain Light Rain
5:49 AM 42.8 °F 37.5 °F 41.0 °F 93% 30.07 in 10.0 mi NE 9.2 mph - N/A   Overcast
5:58 AM 43.2 °F 37.4 °F 41.4 °F 93% 30.08 in 10.0 mi NE 10.4 mph - 0.02 in   Overcast
6:23 AM 42.8 °F 36.2 °F 41.0 °F 93% 30.07 in 10.0 mi NNE 12.7 mph - N/A   Overcast
6:56 AM 42.8 °F 38.0 °F 41.0 °F 93% 30.08 in 10.0 mi NNE 8.1 mph - N/A   Overcast
6:58 AM 42.8 °F 38.0 °F 41.0 °F 93% 30.09 in 10.0 mi NNE 8.1 mph - N/A   Overcast
6:59 AM 42.8 °F 37.5 °F 41.0 °F 93% 30.08 in 10.0 mi NNE 9.2 mph - N/A   Overcast
7:09 AM 42.8 °F 37.0 °F 41.0 °F 93% 30.08 in 9.0 mi NE 10.4 mph - N/A Rain Light Rain
7:19 AM 42.8 °F 37.5 °F 41.0 °F 93% 30.08 in 9.0 mi NE 9.2 mph - N/A   Light Drizzle
7:20 AM 42.8 °F 37.0 °F 41.0 °F 93% 30.08 in 10.0 mi NE 10.4 mph - N/A   Overcast
7:25 AM 42.8 °F 38.0 °F 41.0 °F 93% 30.08 in 9.0 mi NE 8.1 mph - N/A   Overcast
7:33 AM 42.8 °F 36.6 °F 41.0 °F 93% 30.08 in 3.0 mi NE 11.5 mph - N/A   Overcast
7:58 AM 43.0 °F 37.2 °F 41.4 °F 94% 30.10 in 3.0 mi NE 10.4 mph - 0.00 in   Overcast
8:36 AM 42.8 °F 37.0 °F 41.0 °F 93% 30.09 in 2.0 mi NE 10.4 mph - N/A Rain Light Rain
8:44 AM 42.8 °F 36.6 °F 41.0 °F 93% 30.08 in 1.5 mi ENE 11.5 mph - N/A Rain Light Rain
8:52 AM 42.8 °F 36.2 °F 41.0 °F 93% 30.08 in 2.0 mi NE 12.7 mph - N/A Rain Light Rain
8:58 AM 43.0 °F 36.4 °F 41.4 °F 94% 30.10 in 2.5 mi NE 12.7 mph - 0.01 in Rain Light Rain
9:28 AM 42.8 °F 38.0 °F 42.8 °F 100% 30.08 in 4.0 mi NE 8.1 mph - N/A   Light Drizzle
9:58 AM 42.8 °F 37.5 °F 41.0 °F 93% 30.11 in 3.0 mi ENE 9.2 mph - 0.01 in   Light Drizzle
10:27 AM 42.8 °F 37.0 °F 42.8 °F 100% 30.10 in 4.0 mi NNE 10.4 mph - N/A   Overcast
10:58 AM 43.7 °F 38.6 °F 42.1 °F 94% 30.09 in 5.0 mi NE 9.2 mph - N/A   Overcast
11:08 AM 44.6 °F 40.2 °F 42.8 °F 93% 30.08 in 10.0 mi NE 8.1 mph - N/A   Overcast
11:13 AM 42.8 °F 40.1 °F 41.0 °F 93% 30.08 in 5.0 mi ENE 4.6 mph - N/A   Overcast
11:55 AM 42.8 °F 36.6 °F 41.0 °F 93% 30.07 in 3.0 mi North 11.5 mph - N/A Rain Light Rain
11:58 AM 43.2 °F 36.6 °F 41.5 °F 94% 30.07 in 2.0 mi North 12.7 mph - N/A Rain Light Rain
11:59 AM 42.8 °F 37.0 °F 41.0 °F 93% 30.06 in 9.0 mi North 10.4 mph - N/A Rain Light Rain
12:06 PM 42.8 °F 36.2 °F 41.0 °F 93% 30.05 in 1.8 mi NNE 12.7 mph - N/A   Light Drizzle
12:33 PM 42.8 °F 37.0 °F 41.0 °F 93% 30.01 in 1.8 mi NE 10.4 mph - N/A   Light Drizzle
12:58 PM 42.8 °F 36.6 °F 41.5 °F 95% 30.03 in 2.2 mi NE 11.5 mph - 0.02 in Rain Light Rain
1:23 PM 42.8 °F 37.5 °F 41.0 °F 93% 30.01 in 1.5 mi NE 9.2 mph - N/A Rain Light Rain
1:54 PM 42.8 °F 38.6 °F 41.0 °F 93% 30.01 in 2.0 mi NNE 6.9 mph - N/A Rain Light Rain
1:58 PM 43.0 °F 38.8 °F 41.7 °F 95% 30.01 in 2.0 mi NE 6.9 mph - 0.05 in Rain Rain
2:10 PM 42.8 °F 37.5 °F 41.0 °F 93% 29.99 in 3.0 mi NNE 9.2 mph - N/A Rain Light Rain
2:25 PM 42.8 °F 37.0 °F 42.8 °F 100% 29.99 in 4.0 mi NNE 10.4 mph - N/A Rain Light Rain
2:43 PM 44.6 °F 39.2 °F 42.8 °F 93% 29.97 in 5.0 mi NE 10.4 mph - N/A   Overcast
2:58 PM 44.6 °F 38.8 °F 42.8 °F 93% 29.97 in 5.0 mi NE 11.5 mph - 0.03 in   Overcast
3:28 PM 44.6 °F 39.7 °F 42.8 °F 93% 29.99 in 10.0 mi NNE 9.2 mph - N/A   Overcast
3:58 PM 43.9 °F 38.8 °F 42.3 °F 94% 30.00 in 10.0 mi NE 9.2 mph - N/A   Overcast
4:13 PM 44.6 °F 38.8 °F 42.8 °F 93% 29.98 in 10.0 mi NNE 11.5 mph - N/A   Overcast
4:58 PM 43.5 °F 38.9 °F 42.3 °F 95% 30.01 in 10.0 mi ENE 8.1 mph - N/A   Overcast
5:33 PM 42.8 °F 37.5 °F 42.8 °F 100% 30.00 in 9.0 mi NNE 9.2 mph - N/A   Overcast
5:42 PM 42.8 °F 37.0 °F 42.8 °F 100% 30.00 in 8.0 mi NNE 10.4 mph - N/A Rain Light Rain
5:52 PM 42.8 °F 37.5 °F 42.8 °F 100% 30.00 in 6.0 mi NE 9.2 mph - N/A Rain Light Rain
5:58 PM 43.2 °F 37.4 °F 42.1 °F 96% 30.01 in 5.0 mi NNE 10.4 mph - 0.00 in Rain Light Rain
6:03 PM 42.8 °F 37.0 °F 42.8 °F 100% 30.00 in 5.0 mi NNE 10.4 mph - N/A Rain Light Rain
6:33 PM 42.8 °F 38.0 °F 42.8 °F 100% 30.01 in 5.0 mi NNE 8.1 mph - N/A Rain Light Rain
6:43 PM 42.8 °F 37.0 °F 42.8 °F 100% 29.99 in 5.0 mi ENE 10.4 mph - N/A Rain Light Rain
6:48 PM 42.8 °F 38.0 °F 42.8 °F 100% 30.00 in 4.0 mi ENE 8.1 mph - N/A   Overcast
6:58 PM 43.0 °F 37.2 °F 42.1 °F 97% 30.00 in 5.0 mi ENE 10.4 mph - 0.01 in   Overcast
7:03 PM 42.8 °F 37.5 °F 42.8 °F 100% 30.00 in 5.0 mi NE 9.2 mph - N/A   Overcast
7:13 PM 42.8 °F 36.6 °F 41.0 °F 93% 30.01 in 8.0 mi NE 11.5 mph - N/A   Overcast
7:23 PM 42.8 °F 36.6 °F 41.0 °F 93% 30.01 in 10.0 mi NE 11.5 mph - N/A   Overcast
7:28 PM 42.8 °F 36.2 °F 41.0 °F 93% 30.01 in 9.0 mi NNE 12.7 mph - N/A   Overcast
7:33 PM 42.8 °F 36.2 °F 41.0 °F 93% 30.02 in 8.0 mi NNE 12.7 mph - N/A   Overcast
7:38 PM 42.8 °F 38.0 °F 41.0 °F 93% 30.01 in 6.0 mi NE 8.1 mph - N/A   Overcast
7:43 PM 42.8 °F 36.2 °F 41.0 °F 93% 30.01 in 5.0 mi NE 12.7 mph - N/A   Overcast
7:58 PM 42.4 °F 36.5 °F 41.4 °F 96% 30.03 in 4.0 mi NNE 10.4 mph - N/A   Overcast
8:13 PM 42.8 °F 36.6 °F 41.0 °F 93% 30.01 in 4.0 mi NNE 11.5 mph - N/A   Overcast
8:28 PM 42.8 °F 37.0 °F 41.0 °F 93% 29.99 in 3.0 mi NE 10.4 mph - N/A   Overcast
8:58 PM 42.3 °F 37.3 °F 41.5 °F 97% 30.02 in 4.0 mi NE 8.1 mph - N/A   Overcast
9:53 PM 42.8 °F 38.0 °F 41.0 °F 93% 30.02 in 2.5 mi NE 8.1 mph - N/A   Overcast
9:58 PM 42.1 °F 37.1 °F 41.4 °F 97% 30.04 in 2.5 mi NNE 8.1 mph - N/A   Overcast
10:13 PM 42.8 °F 38.0 °F 41.0 °F 93% 30.03 in 3.0 mi NE 8.1 mph - N/A   Overcast
10:18 PM 42.8 °F 38.0 °F 41.0 °F 93% 30.03 in 2.5 mi NE 8.1 mph - N/A   Overcast
10:29 PM 42.8 °F 37.5 °F 41.0 °F 93% 30.02 in 2.5 mi ENE 9.2 mph - N/A   Overcast
10:39 PM 42.8 °F 38.0 °F 41.0 °F 93% 30.02 in 2.0 mi NE 8.1 mph - N/A   Light Drizzle
10:49 PM 42.8 °F 37.0 °F 41.0 °F 93% 30.02 in 2.5 mi NE 10.4 mph - N/A   Light Drizzle
10:57 PM 42.8 °F 37.5 °F 41.0 °F 93% 30.02 in 2.5 mi NE 9.2 mph - N/A   Overcast
10:58 PM 42.8 °F 38.0 °F 41.0 °F 93% 30.03 in 2.5 mi NE 8.1 mph - 0.00 in   Overcast
11:05 PM 42.8 °F 38.0 °F 41.0 °F 93% 30.02 in 2.5 mi NE 8.1 mph - N/A   Light Drizzle
11:10 PM 42.8 °F 37.0 °F 41.0 °F 93% 30.01 in 2.0 mi NE 10.4 mph - N/A   Light Drizzle
11:15 PM 41.0 °F 34.7 °F 41.0 °F 100% 30.01 in 1.5 mi NE 10.4 mph - N/A Rain Light Rain
11:25 PM 41.0 °F 35.2 °F 41.0 °F 100% 30.01 in 1.8 mi NE 9.2 mph - N/A Rain Light Rain
11:30 PM 41.0 °F 35.8 °F 41.0 °F 100% 30.01 in 2.0 mi NE 8.1 mph - N/A Rain Light Rain
11:35 PM 41.0 °F 34.7 °F 41.0 °F 100% 30.01 in 2.5 mi NE 10.4 mph - N/A Rain Light Rain
11:40 PM 41.0 °F 35.8 °F 41.0 °F 100% 30.01 in 3.0 mi NE 8.1 mph - N/A Rain Light Rain
11:45 PM 41.0 °F 35.2 °F 41.0 °F 100% 30.01 in 3.0 mi NE 9.2 mph - N/A   Light Drizzle
11:56 PM 41.0 °F 35.8 °F 41.0 °F 100% 30.00 in 3.0 mi NE 8.1 mph - N/A   Overcast
11:58 PM 41.0 °F 35.2 °F 41.0 °F 100% 30.01 in 3.0 mi NE 9.2 mph - 0.01 in   Overcast